This demonstration page uses our WeatherBlox Daily Observations layout. Learn more.

Left ArrowRight Arrow

Hourly Observations for June 13, 2020

Temp ( °F °C ) Dew Point ( °F °C ) Humidity (%) Winds ( mph kmh ) Pressure ( in mb ) Visibility ( mi km ) Precip ( " mm )
12:53 am 00:53 Mostly Cloudy 72 22.2 64 17.8 76 76 Calm 30.07 1018 10 16 0.00 0.00
1:53 am 01:53 Cloudy 72 22.2 64 17.8 76 76 Calm 30.06 1018 10 16 0.00 0.00
2:53 am 02:53 Cloudy 72 22.2 64 17.8 76 76 Calm 30.06 1018 10 16 0.00 0.00
3:53 am 03:53 Clear 69 20.6 63 17.2 81 81 Calm 30.06 1018 10 16 0.00 0.00
4:53 am 04:53 Mostly Clear 68 20 63 17.2 84 84 Calm 30.07 1018 10 16 0.00 0.00
5:53 am 05:53 Mostly Cloudy 66 18.9 62 16.7 87 87 Calm 30.08 1019 10 16 0.00 0.00
6:53 am 06:53 Mostly Sunny 65 18.3 62 16.7 90 90 Calm 30.09 1019 10 16 0.00 0.00
7:53 am 07:53 Mostly Cloudy 69 20.6 63 17.2 81 81 Calm 30.11 1020 10 16 0.00 0.00
8:53 am 08:53 Partly Cloudy 72 22.2 63 17.2 73 73 N 3 6 30.11 1020 10 16 0.00 0.00
9:53 am 09:53 Partly Cloudy 78 25.6 60 15.6 54 54 ENE 6 9 30.11 1020 10 16 0.00 0.00
10:53 am 10:53 Sunny 79 26.1 61 16.1 54 54 E 3 6 30.11 1020 10 16 0.00 0.00
11:53 am 11:53 Sunny 83 28.3 57 13.9 41 41 ESE 6 9 30.11 1020 10 16 0.00 0.00
12:53 pm 12:53 Partly Cloudy 83 28.3 55 12.8 38 38 VRB 3 6 30.10 1019 10 16 0.00 0.00
1:53 pm 13:53 Mostly Cloudy 84 28.9 55 12.8 37 37 E 8 13 30.08 1019 10 16 0.00 0.00
2:53 pm 14:53 Mostly Cloudy 83 28.3 54 12.2 37 37 ENE 7 11 30.07 1018 10 16 0.00 0.00
3:53 pm 15:53 Mostly Sunny 86 30 54 12.2 33 33 NNE 8 13 30.06 1018 10 16 0.00 0.00
4:53 pm 16:53 Sunny 87 30.6 54 12.2 32 32 NE 8 13 30.05 1018 10 16 0.00 0.00
5:53 pm 17:53 Partly Cloudy 86 30 53 11.7 32 32 NNE 8 13 30.04 1017 10 16 0.00 0.00
6:53 pm 18:53 Sunny 84 28.9 54 12.2 36 36 NNE 8 13 30.04 1017 10 16 0.00 0.00
7:53 pm 19:53 Mostly Cloudy 83 28.3 54 12.2 37 37 NE 6 9 30.04 1017 10 16 0.00 0.00
8:53 pm 20:53 Clear 77 25 57 13.9 50 50 N 5 7 30.06 1018 10 16 0.00 0.00
9:53 pm 21:53 Partly Cloudy 73 22.8 58 14.4 59 59 Calm 30.07 1018 10 16 0.00 0.00
10:53 pm 22:53 Mostly Cloudy 72 22.2 60 15.6 66 66 Calm 30.09 1019 10 16 0.00 0.00
11:53 pm 23:53 Clear 67 19.4 61 16.1 81 81 Calm 30.10 1019 10 16 0.00 0.00

Powered by AerisWeather